Year,Month,Day,Hour,Minute,Value (Times are PST for temperature in C)
2020,08,11,00,00,16.60
2020,08,11,00,01,16.60
2020,08,11,00,02,16.60
2020,08,11,00,03,16.60
2020,08,11,00,05,16.50
2020,08,11,00,06,16.50
2020,08,11,00,07,16.40
2020,08,11,00,08,16.40
2020,08,11,00,09,16.30
2020,08,11,00,10,16.30
2020,08,11,00,11,16.30
2020,08,11,00,12,16.30
2020,08,11,00,13,16.20
2020,08,11,00,14,16.20
2020,08,11,00,15,16.20
2020,08,11,00,16,16.20
2020,08,11,00,17,16.10
2020,08,11,00,18,16.10
2020,08,11,00,19,16.00
2020,08,11,00,20,16.00
2020,08,11,00,22,15.90
2020,08,11,00,23,15.90
2020,08,11,00,24,15.90
2020,08,11,00,25,15.80
2020,08,11,00,26,15.80
2020,08,11,00,27,15.80
2020,08,11,00,28,15.80
2020,08,11,00,30,15.70
2020,08,11,00,31,15.70
2020,08,11,00,33,15.70
2020,08,11,00,34,15.70
2020,08,11,00,35,15.70
2020,08,11,00,36,15.70
2020,08,11,00,37,15.70
2020,08,11,00,38,15.70
2020,08,11,00,39,15.60
2020,08,11,00,40,15.70
2020,08,11,00,41,15.70
2020,08,11,00,42,15.70
2020,08,11,00,43,15.70
2020,08,11,00,44,15.70
2020,08,11,00,45,15.70
2020,08,11,00,46,15.80
2020,08,11,00,47,15.80
2020,08,11,00,48,15.80
2020,08,11,00,49,15.80
2020,08,11,00,50,15.90
2020,08,11,00,51,15.90
2020,08,11,00,52,15.90
2020,08,11,00,54,15.90
2020,08,11,00,55,15.90
2020,08,11,00,56,15.90
2020,08,11,00,57,15.90
2020,08,11,00,58,15.90
2020,08,11,01,00,15.90
2020,08,11,01,01,15.90
2020,08,11,01,03,15.80
2020,08,11,01,04,15.80
2020,08,11,01,05,15.80
2020,08,11,01,06,15.80
2020,08,11,01,07,15.80
2020,08,11,01,08,15.80
2020,08,11,01,09,15.80
2020,08,11,01,11,15.80
2020,08,11,01,12,15.80
2020,08,11,01,13,15.80
2020,08,11,01,14,15.80
2020,08,11,01,15,15.80
2020,08,11,01,16,15.80
2020,08,11,01,17,15.70
2020,08,11,01,18,15.70
2020,08,11,01,19,15.70
2020,08,11,01,20,15.70
2020,08,11,01,21,15.70
2020,08,11,01,22,15.70
2020,08,11,01,23,15.60
2020,08,11,01,24,15.60
2020,08,11,01,25,15.60
2020,08,11,01,26,15.60
2020,08,11,01,27,15.60
2020,08,11,01,28,15.60
2020,08,11,01,29,15.60
2020,08,11,01,30,15.50
2020,08,11,01,31,15.50
2020,08,11,01,32,15.50
2020,08,11,01,33,15.40
2020,08,11,01,34,15.40
2020,08,11,01,35,15.40
2020,08,11,01,36,15.40
2020,08,11,01,37,15.40
2020,08,11,01,38,15.40
2020,08,11,01,39,15.40
2020,08,11,01,40,15.40
2020,08,11,01,41,15.40
2020,08,11,01,42,15.40
2020,08,11,01,43,15.30
2020,08,11,01,44,15.30
2020,08,11,01,45,15.30
2020,08,11,01,46,15.30
2020,08,11,01,47,15.30
2020,08,11,01,48,15.30
2020,08,11,01,49,15.30
2020,08,11,01,50,15.30
2020,08,11,01,51,15.20
2020,08,11,01,52,15.20
2020,08,11,01,53,15.20
2020,08,11,01,54,15.20
2020,08,11,01,55,15.20
2020,08,11,01,56,15.10
2020,08,11,01,57,15.10
2020,08,11,01,58,15.10
2020,08,11,01,59,15.10
2020,08,11,02,00,15.10
2020,08,11,02,01,15.10
2020,08,11,02,02,15.10
2020,08,11,02,03,15.10
2020,08,11,02,04,15.10
2020,08,11,02,05,15.10
2020,08,11,02,06,15.10
2020,08,11,02,07,15.00
2020,08,11,02,08,15.00
2020,08,11,02,09,15.00
2020,08,11,02,10,15.00
2020,08,11,02,11,15.00
2020,08,11,02,12,15.00
2020,08,11,02,13,15.10
2020,08,11,02,14,15.00
2020,08,11,02,15,15.10
2020,08,11,02,16,15.00
2020,08,11,02,17,15.00
2020,08,11,02,18,15.00
2020,08,11,02,19,15.10
2020,08,11,02,20,15.10
2020,08,11,02,21,15.10
2020,08,11,02,22,15.10
2020,08,11,02,23,15.00
2020,08,11,02,24,15.00
2020,08,11,02,25,14.90
2020,08,11,02,26,14.90
2020,08,11,02,27,14.90
2020,08,11,02,28,14.90
2020,08,11,02,29,14.90
2020,08,11,02,30,14.80
2020,08,11,02,31,14.80
2020,08,11,02,32,14.80
2020,08,11,02,33,14.80
2020,08,11,02,34,14.70
2020,08,11,02,35,14.70
2020,08,11,02,36,14.70
2020,08,11,02,37,14.70
2020,08,11,02,38,14.70
2020,08,11,02,39,14.70
2020,08,11,02,40,14.70
2020,08,11,02,41,14.70
2020,08,11,02,42,14.70
2020,08,11,02,43,14.70
2020,08,11,02,44,14.60
2020,08,11,02,45,14.60
2020,08,11,02,46,14.60
2020,08,11,02,47,14.60
2020,08,11,02,48,14.50
2020,08,11,02,49,14.50
2020,08,11,02,50,14.40
2020,08,11,02,51,14.40
2020,08,11,02,52,14.40
2020,08,11,02,53,14.40
2020,08,11,02,54,14.30
2020,08,11,02,55,14.30
2020,08,11,02,56,14.30
2020,08,11,02,57,14.30
2020,08,11,02,58,14.20
2020,08,11,02,59,14.30
2020,08,11,03,00,14.30
2020,08,11,03,01,14.30
2020,08,11,03,02,14.30
2020,08,11,03,03,14.30
2020,08,11,03,04,14.30
2020,08,11,03,05,14.30
2020,08,11,03,06,14.30
2020,08,11,03,07,14.30
2020,08,11,03,08,14.30
2020,08,11,03,09,14.30
2020,08,11,03,10,14.30
2020,08,11,03,11,14.30
2020,08,11,03,12,14.30
2020,08,11,03,13,14.30
2020,08,11,03,14,14.30
2020,08,11,03,15,14.30
2020,08,11,03,16,14.30
2020,08,11,03,17,14.30
2020,08,11,03,18,14.30
2020,08,11,03,19,14.20
2020,08,11,03,20,14.20
2020,08,11,03,21,14.20
2020,08,11,03,22,14.20
2020,08,11,03,23,14.20
2020,08,11,03,24,14.20
2020,08,11,03,25,14.20
2020,08,11,03,26,14.20
2020,08,11,03,27,14.10
2020,08,11,03,28,14.10
2020,08,11,03,29,14.10
2020,08,11,03,30,14.10
2020,08,11,03,31,14.10
2020,08,11,03,32,14.10
2020,08,11,03,33,14.10
2020,08,11,03,34,14.10
2020,08,11,03,35,14.10
2020,08,11,03,36,14.10
2020,08,11,03,37,14.00
2020,08,11,03,38,14.00
2020,08,11,03,39,14.00
2020,08,11,03,40,13.90
2020,08,11,03,41,13.90
2020,08,11,03,42,13.90
2020,08,11,03,43,13.90
2020,08,11,03,44,13.80
2020,08,11,03,45,13.80
2020,08,11,03,46,13.80
2020,08,11,03,47,13.80
2020,08,11,03,48,13.80
2020,08,11,03,49,13.80
2020,08,11,03,50,13.80
2020,08,11,03,51,13.80
2020,08,11,03,52,13.80
2020,08,11,03,53,13.80
2020,08,11,03,54,13.80
2020,08,11,03,55,13.80
2020,08,11,03,56,13.80
2020,08,11,03,57,13.80
2020,08,11,03,58,13.80
2020,08,11,03,59,13.80
2020,08,11,04,00,13.70
2020,08,11,04,01,13.70
2020,08,11,04,02,13.70
2020,08,11,04,03,13.70
2020,08,11,04,04,13.60
2020,08,11,04,05,13.60
2020,08,11,04,06,13.60
2020,08,11,04,07,13.50
2020,08,11,04,08,13.50
2020,08,11,04,09,13.50
2020,08,11,04,10,13.40
2020,08,11,04,11,13.40
2020,08,11,04,12,13.40
2020,08,11,04,13,13.40
2020,08,11,04,14,13.40
2020,08,11,04,15,13.30
2020,08,11,04,16,13.30
2020,08,11,04,17,13.30
2020,08,11,04,18,13.30
2020,08,11,04,19,13.30
2020,08,11,04,20,13.30
2020,08,11,04,21,13.30
2020,08,11,04,22,13.30
2020,08,11,04,23,13.30
2020,08,11,04,24,13.30
2020,08,11,04,25,13.30
2020,08,11,04,26,13.30
2020,08,11,04,27,13.30
2020,08,11,04,28,13.30
2020,08,11,04,29,13.30
2020,08,11,04,30,13.30
2020,08,11,04,31,13.30
2020,08,11,04,32,13.30
2020,08,11,04,33,13.40
2020,08,11,04,34,13.40
2020,08,11,04,35,13.40
2020,08,11,04,36,13.40
2020,08,11,04,37,13.40
2020,08,11,04,38,13.50
2020,08,11,04,39,13.50
2020,08,11,04,40,13.60
2020,08,11,04,41,13.60
2020,08,11,04,42,13.60
2020,08,11,04,43,13.60
2020,08,11,04,44,13.60
2020,08,11,04,45,13.60
2020,08,11,04,46,13.60
2020,08,11,04,47,13.60
2020,08,11,04,48,13.60
2020,08,11,04,49,13.60
2020,08,11,04,50,13.60
2020,08,11,04,51,13.60
2020,08,11,04,52,13.50
2020,08,11,04,53,13.50
2020,08,11,04,54,13.50
2020,08,11,04,55,13.50
2020,08,11,04,56,13.40
2020,08,11,04,57,13.40
2020,08,11,04,58,13.40
2020,08,11,04,59,13.30
2020,08,11,05,00,13.30
2020,08,11,05,01,13.30
2020,08,11,05,02,13.20
2020,08,11,05,03,13.20
2020,08,11,05,04,13.20
2020,08,11,05,05,13.10
2020,08,11,05,06,13.10
2020,08,11,05,07,13.10
2020,08,11,05,08,13.10
2020,08,11,05,09,13.10
2020,08,11,05,10,13.00
2020,08,11,05,11,13.00
2020,08,11,05,12,12.90
2020,08,11,05,13,12.90
2020,08,11,05,14,12.90
2020,08,11,05,15,12.90
2020,08,11,05,16,12.90
2020,08,11,05,17,12.80
2020,08,11,05,18,12.80
2020,08,11,05,19,12.80
2020,08,11,05,20,12.80
2020,08,11,05,21,12.80
2020,08,11,05,22,12.80
2020,08,11,05,23,12.80
2020,08,11,05,24,12.80
2020,08,11,05,25,12.80
2020,08,11,05,26,12.80
2020,08,11,05,27,12.80
2020,08,11,05,28,12.70
2020,08,11,05,29,12.80
2020,08,11,05,30,12.80
2020,08,11,05,31,12.80
2020,08,11,05,32,12.90
2020,08,11,05,33,12.90
2020,08,11,05,34,13.00
2020,08,11,05,35,13.00
2020,08,11,05,36,13.10
2020,08,11,05,37,13.10
2020,08,11,05,38,13.00
2020,08,11,05,39,13.00
2020,08,11,05,40,13.10
2020,08,11,05,41,13.00
2020,08,11,05,42,13.00
2020,08,11,05,43,13.00
2020,08,11,05,44,13.00
2020,08,11,05,45,13.00
2020,08,11,05,46,13.00
2020,08,11,05,47,13.00
2020,08,11,05,48,12.90
2020,08,11,05,49,12.90
2020,08,11,05,50,12.80
2020,08,11,05,51,12.80
2020,08,11,05,52,12.80
2020,08,11,05,53,12.80
2020,08,11,05,54,12.70
2020,08,11,05,55,12.70
2020,08,11,05,56,12.70
2020,08,11,05,57,12.60
2020,08,11,05,58,12.60
2020,08,11,05,59,12.60
2020,08,11,06,00,12.50
2020,08,11,06,01,12.50
2020,08,11,06,02,12.40
2020,08,11,06,03,12.40
2020,08,11,06,04,12.40
2020,08,11,06,05,12.40
2020,08,11,06,06,12.30
2020,08,11,06,07,12.30
2020,08,11,06,08,12.30
2020,08,11,06,09,12.30
2020,08,11,06,10,12.30
2020,08,11,06,11,12.30
2020,08,11,06,12,12.30
2020,08,11,06,13,12.20
2020,08,11,06,14,12.20
2020,08,11,06,15,12.20
2020,08,11,06,16,12.20
2020,08,11,06,17,12.20
2020,08,11,06,18,12.20
2020,08,11,06,19,12.20
2020,08,11,06,20,12.20
2020,08,11,06,21,12.20
2020,08,11,06,22,12.20
2020,08,11,06,23,12.20
2020,08,11,06,24,12.20
2020,08,11,06,25,12.20
2020,08,11,06,26,12.20
2020,08,11,06,27,12.20
2020,08,11,06,28,12.20
2020,08,11,06,29,12.30
2020,08,11,06,30,12.30
2020,08,11,06,31,12.30
2020,08,11,06,32,12.30
2020,08,11,06,33,12.40
2020,08,11,06,34,12.40
2020,08,11,06,35,12.40
2020,08,11,06,36,12.50
2020,08,11,06,37,12.60
2020,08,11,06,38,12.60
2020,08,11,06,39,12.60
2020,08,11,06,40,12.60
2020,08,11,06,41,12.60
2020,08,11,06,42,12.60
2020,08,11,06,43,12.60
2020,08,11,06,44,12.50
2020,08,11,06,45,12.60
2020,08,11,06,46,12.60
2020,08,11,06,47,12.60
2020,08,11,06,48,12.60
2020,08,11,06,49,12.60
2020,08,11,06,50,12.70
2020,08,11,06,51,12.70
2020,08,11,06,52,12.70
2020,08,11,06,53,12.70
2020,08,11,06,54,12.60
2020,08,11,06,55,12.60
2020,08,11,06,56,12.60
2020,08,11,06,57,12.60
2020,08,11,06,58,12.60
2020,08,11,06,59,12.60
2020,08,11,07,00,12.70
2020,08,11,07,01,12.70
2020,08,11,07,02,12.70
2020,08,11,07,03,12.80
2020,08,11,07,04,12.80
2020,08,11,07,05,12.80
2020,08,11,07,06,12.90
2020,08,11,07,07,12.90
2020,08,11,07,08,12.90
2020,08,11,07,09,13.00
2020,08,11,07,10,13.10
2020,08,11,07,11,13.10
2020,08,11,07,12,13.10
2020,08,11,07,13,13.10
2020,08,11,07,14,13.10
2020,08,11,07,15,13.10
2020,08,11,07,16,13.20
2020,08,11,07,17,13.20
2020,08,11,07,18,13.20
2020,08,11,07,19,13.20
2020,08,11,07,20,13.20
2020,08,11,07,21,13.20
2020,08,11,07,22,13.30
2020,08,11,07,23,13.30
2020,08,11,07,24,13.30
2020,08,11,07,25,13.30
2020,08,11,07,26,13.40
2020,08,11,07,27,13.40
2020,08,11,07,28,13.40
2020,08,11,07,29,13.40
2020,08,11,07,30,13.40
2020,08,11,07,31,13.40
2020,08,11,07,32,13.40
2020,08,11,07,33,13.50
2020,08,11,07,34,13.50
2020,08,11,07,35,13.50
2020,08,11,07,36,13.60
2020,08,11,07,37,13.60
2020,08,11,07,38,13.60
2020,08,11,07,39,13.60
2020,08,11,07,40,13.70
2020,08,11,07,41,13.70
2020,08,11,07,42,13.70
2020,08,11,07,43,13.80
2020,08,11,07,44,13.80
2020,08,11,07,45,13.80
2020,08,11,07,46,13.80
2020,08,11,07,47,13.90
2020,08,11,07,48,13.90
2020,08,11,07,49,13.90
2020,08,11,07,50,13.90
2020,08,11,07,51,14.00
2020,08,11,07,52,14.10
2020,08,11,07,53,14.10
2020,08,11,07,54,14.10
2020,08,11,07,55,14.10
2020,08,11,07,56,14.10
2020,08,11,07,57,14.10
2020,08,11,07,58,14.20
2020,08,11,07,59,14.20
2020,08,11,08,00,14.20
2020,08,11,08,01,14.20
2020,08,11,08,02,14.20
2020,08,11,08,03,14.30
2020,08,11,08,04,14.30
2020,08,11,08,05,14.30
2020,08,11,08,06,14.40
2020,08,11,08,07,14.40
2020,08,11,08,08,14.50
2020,08,11,08,09,14.60
2020,08,11,08,10,14.60
2020,08,11,08,11,14.70
2020,08,11,08,12,14.70
2020,08,11,08,13,14.70
2020,08,11,08,14,14.80
2020,08,11,08,15,14.80
2020,08,11,08,16,14.80
2020,08,11,08,17,14.90
2020,08,11,08,18,14.90
2020,08,11,08,19,14.90
2020,08,11,08,20,14.90
2020,08,11,08,21,14.90
2020,08,11,08,22,15.00
2020,08,11,08,23,15.00
2020,08,11,08,25,15.10
2020,08,11,08,26,15.10
2020,08,11,08,27,15.10
2020,08,11,08,29,15.10
2020,08,11,08,30,15.10
2020,08,11,08,31,15.10
2020,08,11,08,32,15.00
2020,08,11,08,33,15.00
2020,08,11,08,34,15.00
2020,08,11,08,35,15.00
2020,08,11,08,37,15.00
2020,08,11,08,38,15.10
2020,08,11,08,39,15.10
2020,08,11,08,40,15.10
2020,08,11,08,41,15.10
2020,08,11,08,42,15.20
2020,08,11,08,43,15.20
2020,08,11,08,44,15.20
2020,08,11,08,45,15.20
2020,08,11,08,46,15.20
2020,08,11,08,47,15.20
2020,08,11,08,48,15.20
2020,08,11,08,49,15.30
2020,08,11,08,50,15.30
2020,08,11,08,51,15.30
2020,08,11,08,52,15.30
2020,08,11,08,53,15.40
2020,08,11,08,54,15.40
2020,08,11,08,55,15.40
2020,08,11,08,56,15.40
2020,08,11,08,57,15.50
2020,08,11,08,58,15.60
2020,08,11,09,00,15.70
2020,08,11,09,01,15.80
2020,08,11,09,02,15.80
2020,08,11,09,03,15.90
2020,08,11,09,04,15.90
2020,08,11,09,05,16.10
2020,08,11,09,06,16.20
2020,08,11,09,07,16.20
2020,08,11,09,08,16.30
2020,08,11,09,09,16.30
2020,08,11,09,10,16.40
2020,08,11,09,11,16.50
2020,08,11,09,12,16.60
2020,08,11,09,13,16.60
2020,08,11,09,14,16.70
2020,08,11,09,15,16.70
2020,08,11,09,16,16.80
2020,08,11,09,17,16.80
2020,08,11,09,18,16.90
2020,08,11,09,19,16.90
2020,08,11,09,20,17.10
2020,08,11,09,21,17.10
2020,08,11,09,22,17.20
2020,08,11,09,23,17.30
2020,08,11,09,24,17.30
2020,08,11,09,25,17.40
2020,08,11,09,26,17.40
2020,08,11,09,27,17.50
2020,08,11,09,28,17.60
2020,08,11,09,29,17.60
2020,08,11,09,31,17.40
2020,08,11,09,32,17.40
2020,08,11,09,33,17.40
2020,08,11,09,34,17.40
2020,08,11,09,35,17.50
2020,08,11,09,36,17.50
2020,08,11,09,37,17.50
2020,08,11,09,38,17.50
2020,08,11,09,39,17.50
2020,08,11,09,40,17.50
2020,08,11,09,41,17.60
2020,08,11,09,42,17.60
2020,08,11,09,43,17.60
2020,08,11,09,44,17.70
2020,08,11,09,45,17.70
2020,08,11,09,46,17.80
2020,08,11,09,47,17.80
2020,08,11,09,48,17.80
2020,08,11,09,49,17.90
2020,08,11,09,50,17.90
2020,08,11,09,51,18.00
2020,08,11,09,52,18.10
2020,08,11,09,53,18.10
2020,08,11,09,54,18.20
2020,08,11,09,55,18.20
2020,08,11,09,56,18.20
2020,08,11,10,00,18.40
2020,08,11,10,01,18.40
2020,08,11,10,03,18.40
2020,08,11,10,04,18.30
2020,08,11,10,05,18.40
2020,08,11,10,06,18.40
2020,08,11,10,07,18.50
2020,08,11,10,08,18.60
2020,08,11,10,10,18.60
2020,08,11,10,11,18.70
2020,08,11,10,13,18.70
2020,08,11,10,14,18.80
2020,08,11,10,16,18.80
2020,08,11,10,17,18.80
2020,08,11,10,18,18.80
2020,08,11,10,19,18.80
2020,08,11,10,20,18.70
2020,08,11,10,21,18.70
2020,08,11,10,22,18.60
2020,08,11,10,23,18.60
2020,08,11,10,24,18.50
2020,08,11,10,25,18.60
2020,08,11,10,27,18.70
2020,08,11,10,29,18.90
2020,08,11,10,30,18.90
2020,08,11,10,31,19.10
2020,08,11,10,33,19.20
2020,08,11,10,35,19.10
2020,08,11,10,36,19.10
2020,08,11,10,37,19.10
2020,08,11,10,38,19.00
2020,08,11,10,39,18.90
2020,08,11,10,40,18.90
2020,08,11,10,41,18.90
2020,08,11,10,42,18.80
2020,08,11,10,43,18.80
2020,08,11,10,44,18.80
2020,08,11,10,45,18.70
2020,08,11,10,46,18.70
2020,08,11,10,48,18.70
2020,08,11,10,49,18.70
2020,08,11,10,50,18.60
2020,08,11,10,51,18.60
2020,08,11,10,52,18.60
2020,08,11,10,53,18.60
2020,08,11,10,54,18.60
2020,08,11,10,55,18.70
2020,08,11,10,56,18.70
2020,08,11,10,57,18.70
2020,08,11,10,59,18.90
2020,08,11,11,00,18.90
2020,08,11,11,01,19.00
2020,08,11,11,02,19.10
2020,08,11,11,03,19.20
2020,08,11,11,04,19.30
2020,08,11,11,05,19.40
2020,08,11,11,06,19.50
2020,08,11,11,07,19.60
2020,08,11,11,08,19.70
2020,08,11,11,09,19.80
2020,08,11,11,10,19.90
2020,08,11,11,12,20.10
2020,08,11,11,14,20.10
2020,08,11,11,15,20.10
2020,08,11,11,16,20.10
2020,08,11,11,18,19.90
2020,08,11,11,20,19.80
2020,08,11,11,21,19.80
2020,08,11,11,22,19.90
2020,08,11,11,24,19.90
2020,08,11,11,25,19.90
2020,08,11,11,27,20.00
2020,08,11,11,28,20.00
2020,08,11,11,29,19.90
2020,08,11,11,30,20.00
2020,08,11,11,31,20.00
2020,08,11,11,33,19.90
2020,08,11,11,34,19.90
2020,08,11,11,35,19.90
2020,08,11,11,36,19.90
2020,08,11,11,37,19.90
2020,08,11,11,38,19.90
2020,08,11,11,39,19.90
2020,08,11,11,40,19.90
2020,08,11,11,41,19.90
2020,08,11,11,42,19.90
2020,08,11,11,43,19.90
2020,08,11,11,44,19.80
2020,08,11,11,46,19.80
2020,08,11,11,48,19.90
2020,08,11,11,49,19.90
2020,08,11,11,50,20.00
2020,08,11,11,52,20.20
2020,08,11,11,53,20.30
2020,08,11,11,54,20.30
2020,08,11,11,55,20.40
2020,08,11,11,56,20.40
2020,08,11,11,57,20.50
2020,08,11,11,58,20.60
2020,08,11,11,59,20.70
2020,08,11,12,00,20.80
2020,08,11,12,01,21.00
2020,08,11,12,02,21.10
2020,08,11,12,03,21.20
2020,08,11,12,04,21.20
2020,08,11,12,05,21.30
2020,08,11,12,06,21.30
2020,08,11,12,07,21.20
2020,08,11,12,08,21.20
2020,08,11,12,09,21.10
2020,08,11,12,10,21.10
2020,08,11,12,11,21.20
2020,08,11,12,12,21.30
2020,08,11,12,13,21.40
2020,08,11,12,14,21.40
2020,08,11,12,15,21.50
2020,08,11,12,16,21.60
2020,08,11,12,18,21.60
2020,08,11,12,19,21.60
2020,08,11,12,20,21.50
2020,08,11,12,22,21.50
2020,08,11,12,23,21.60
2020,08,11,12,24,21.60
2020,08,11,12,25,21.70
2020,08,11,12,26,21.70
2020,08,11,12,27,21.80
2020,08,11,12,28,21.80
2020,08,11,12,29,21.80
2020,08,11,12,30,21.80
2020,08,11,12,31,21.80
2020,08,11,12,32,21.80
2020,08,11,12,33,21.80
2020,08,11,12,34,21.70
2020,08,11,12,35,21.60
2020,08,11,12,37,21.40
2020,08,11,12,38,21.50
2020,08,11,12,39,21.40
2020,08,11,12,40,21.40
2020,08,11,12,41,21.30
2020,08,11,12,43,21.10
2020,08,11,12,45,21.10
2020,08,11,12,46,21.10
2020,08,11,12,48,20.90
2020,08,11,12,50,20.90
2020,08,11,12,51,20.90
2020,08,11,12,52,20.90
2020,08,11,12,53,20.90
2020,08,11,12,54,20.90
2020,08,11,12,55,20.90
2020,08,11,12,56,21.10
2020,08,11,12,57,21.20
2020,08,11,12,58,21.30
2020,08,11,12,59,21.30
2020,08,11,13,00,21.30
2020,08,11,13,01,21.30
2020,08,11,13,02,21.20
2020,08,11,13,03,21.20
2020,08,11,13,04,21.20
2020,08,11,13,05,21.20
2020,08,11,13,07,21.30
2020,08,11,13,09,21.30
2020,08,11,13,11,21.30
2020,08,11,13,12,21.20
2020,08,11,13,13,21.20
2020,08,11,13,14,21.20
2020,08,11,13,15,21.20
2020,08,11,13,16,21.20
2020,08,11,13,17,21.20
2020,08,11,13,18,21.20
2020,08,11,13,19,21.10
2020,08,11,13,20,21.10
2020,08,11,13,21,21.10
2020,08,11,13,22,21.10
2020,08,11,13,23,21.20
2020,08,11,13,24,21.20
2020,08,11,13,25,21.20
2020,08,11,13,26,21.20
2020,08,11,13,28,21.20
2020,08,11,13,30,21.20
2020,08,11,13,31,21.20
2020,08,11,13,32,21.30
2020,08,11,13,33,21.30
2020,08,11,13,34,21.30
2020,08,11,13,35,21.30
2020,08,11,13,37,21.20
2020,08,11,13,38,21.20
2020,08,11,13,39,21.20
2020,08,11,13,40,21.20
2020,08,11,13,41,21.20
2020,08,11,13,42,21.20
2020,08,11,13,43,21.20
2020,08,11,13,44,21.10
2020,08,11,13,45,20.90
2020,08,11,13,46,20.90
2020,08,11,13,47,20.90
2020,08,11,13,48,20.90
2020,08,11,13,50,20.80
2020,08,11,13,51,20.90
2020,08,11,13,52,20.90
2020,08,11,13,54,21.10
2020,08,11,13,55,21.10
2020,08,11,13,56,21.20
2020,08,11,13,57,21.20
2020,08,11,13,58,21.20
2020,08,11,14,00,21.10
2020,08,11,14,03,21.10
2020,08,11,14,05,20.90
2020,08,11,14,06,20.80
2020,08,11,14,07,20.70
2020,08,11,14,09,20.60
2020,08,11,14,11,20.60
2020,08,11,14,12,20.50
2020,08,11,14,13,20.40
2020,08,11,14,15,20.40
2020,08,11,14,16,20.50
2020,08,11,14,18,20.60
2020,08,11,14,19,20.60
2020,08,11,14,20,20.50
2020,08,11,14,21,20.50
2020,08,11,14,22,20.40
2020,08,11,14,23,20.40
2020,08,11,14,24,20.40
2020,08,11,14,26,20.40
2020,08,11,14,27,20.40
2020,08,11,14,29,20.30
2020,08,11,14,32,20.30
2020,08,11,14,33,20.20
2020,08,11,14,34,20.10
2020,08,11,14,35,20.00
2020,08,11,14,36,20.00
2020,08,11,14,37,19.90
2020,08,11,14,38,19.90
2020,08,11,14,39,19.90
2020,08,11,14,40,19.90
2020,08,11,14,42,19.90
2020,08,11,14,43,19.80
2020,08,11,14,45,19.90
2020,08,11,14,47,19.80
2020,08,11,14,48,19.90
2020,08,11,14,50,19.80
2020,08,11,14,51,19.80
2020,08,11,14,53,19.70
2020,08,11,14,54,19.70
2020,08,11,14,55,19.70
2020,08,11,14,56,19.70
2020,08,11,14,57,19.70
2020,08,11,14,58,19.70
2020,08,11,14,59,19.70
2020,08,11,15,00,19.80
2020,08,11,15,01,19.80
2020,08,11,15,02,19.90
2020,08,11,15,03,19.90
2020,08,11,15,05,19.80
2020,08,11,15,06,19.70
2020,08,11,15,07,19.60
2020,08,11,15,08,19.60
2020,08,11,15,09,19.60
2020,08,11,15,10,19.50
2020,08,11,15,11,19.50
2020,08,11,15,13,19.50
2020,08,11,15,15,19.50
2020,08,11,15,16,19.60
2020,08,11,15,17,19.60
2020,08,11,15,18,19.60
2020,08,11,15,19,19.60
2020,08,11,15,20,19.60
2020,08,11,15,21,19.70
2020,08,11,15,22,19.70
2020,08,11,15,24,19.80
2020,08,11,15,25,19.70
2020,08,11,15,26,19.70
2020,08,11,15,27,19.70
2020,08,11,15,28,19.70
2020,08,11,15,29,19.80
2020,08,11,15,30,19.80
2020,08,11,15,31,19.80
2020,08,11,15,32,19.70
2020,08,11,15,33,19.70
2020,08,11,15,34,19.60
2020,08,11,15,35,19.50
2020,08,11,15,36,19.40
2020,08,11,15,37,19.30
2020,08,11,15,39,19.20
2020,08,11,15,40,19.20
2020,08,11,15,41,19.20
2020,08,11,15,42,19.20
2020,08,11,15,43,19.20
2020,08,11,15,45,19.10
2020,08,11,15,46,19.10
2020,08,11,15,47,19.10
2020,08,11,15,49,18.90
2020,08,11,15,50,18.90
2020,08,11,15,51,18.80
2020,08,11,15,52,18.70
2020,08,11,15,53,18.70
2020,08,11,15,54,18.60
2020,08,11,15,55,18.50
2020,08,11,15,57,18.40
2020,08,11,15,58,18.30
2020,08,11,16,00,18.20
2020,08,11,16,01,18.20
2020,08,11,16,02,18.30
2020,08,11,16,03,18.30
2020,08,11,16,05,18.20
2020,08,11,16,06,18.20
2020,08,11,16,07,18.20
2020,08,11,16,09,18.30
2020,08,11,16,10,18.30
2020,08,11,16,11,18.30
2020,08,11,16,12,18.30
2020,08,11,16,13,18.30
2020,08,11,16,14,18.30
2020,08,11,16,15,18.30
2020,08,11,16,16,18.30
2020,08,11,16,17,18.30
2020,08,11,16,18,18.30
2020,08,11,16,19,18.20
2020,08,11,16,20,18.20
2020,08,11,16,24,18.10
2020,08,11,16,25,18.10
2020,08,11,16,26,18.10
2020,08,11,16,27,18.00
2020,08,11,16,29,17.90
2020,08,11,16,30,17.90
2020,08,11,16,31,17.90
2020,08,11,16,32,17.90
2020,08,11,16,33,17.90
2020,08,11,16,34,17.80
2020,08,11,16,35,17.80
2020,08,11,16,36,17.80
2020,08,11,16,37,17.80
2020,08,11,16,38,17.80
2020,08,11,16,39,17.80
2020,08,11,16,40,17.80
2020,08,11,16,41,17.80
2020,08,11,16,43,17.80
2020,08,11,16,44,17.80
2020,08,11,16,45,17.80
2020,08,11,16,47,17.90
2020,08,11,16,49,18.00
2020,08,11,16,50,18.00
2020,08,11,16,51,18.00
2020,08,11,16,52,18.10
2020,08,11,16,54,18.10
2020,08,11,16,56,18.20
2020,08,11,16,57,18.20
2020,08,11,16,58,18.20
2020,08,11,16,59,18.10
2020,08,11,17,00,18.20
2020,08,11,17,01,18.10
2020,08,11,17,02,18.20
2020,08,11,17,04,18.20
2020,08,11,17,05,18.20
2020,08,11,17,06,18.30
2020,08,11,17,07,18.30
2020,08,11,17,08,18.30
2020,08,11,17,09,18.30
2020,08,11,17,10,18.30
2020,08,11,17,11,18.30
2020,08,11,17,12,18.40
2020,08,11,17,13,18.40
2020,08,11,17,15,18.50
2020,08,11,17,16,18.60
2020,08,11,17,17,18.60
2020,08,11,17,18,18.60
2020,08,11,17,19,18.60
2020,08,11,17,20,18.60
2020,08,11,17,21,18.50
2020,08,11,17,22,18.50
2020,08,11,17,24,18.60
2020,08,11,17,26,18.70
2020,08,11,17,27,18.80
2020,08,11,17,28,18.90
2020,08,11,17,30,18.90
2020,08,11,17,32,18.90
2020,08,11,17,33,18.90
2020,08,11,17,34,18.80
2020,08,11,17,35,18.80
2020,08,11,17,36,18.70
2020,08,11,17,39,18.60
2020,08,11,17,40,18.50
2020,08,11,17,41,18.40
2020,08,11,17,43,18.30
2020,08,11,17,44,18.30
2020,08,11,17,45,18.30
2020,08,11,17,47,18.20
2020,08,11,17,49,18.20
2020,08,11,17,50,18.20
2020,08,11,17,51,18.20
2020,08,11,17,52,18.20
2020,08,11,17,53,18.20
2020,08,11,17,55,18.20
2020,08,11,17,56,18.20
2020,08,11,17,57,18.20
2020,08,11,17,58,18.10
2020,08,11,18,00,18.00
2020,08,11,18,01,18.00
2020,08,11,18,02,18.00
2020,08,11,18,04,17.90
2020,08,11,18,05,17.90
2020,08,11,18,06,17.90
2020,08,11,18,07,17.90
2020,08,11,18,08,17.90
2020,08,11,18,09,18.00
2020,08,11,18,10,18.10
2020,08,11,18,12,18.10
2020,08,11,18,13,18.10
2020,08,11,18,15,18.10
2020,08,11,18,17,18.10
2020,08,11,18,18,18.10
2020,08,11,18,20,18.00
2020,08,11,18,21,18.00
2020,08,11,18,23,17.90
2020,08,11,18,26,17.80
2020,08,11,18,27,17.80
2020,08,11,18,28,17.80
2020,08,11,18,29,17.80
2020,08,11,18,30,17.80
2020,08,11,18,31,17.80
2020,08,11,18,32,17.90
2020,08,11,18,34,17.90
2020,08,11,18,35,17.90
2020,08,11,18,37,17.90
2020,08,11,18,38,17.80
2020,08,11,18,39,17.80
2020,08,11,18,41,17.80
2020,08,11,18,42,17.80
2020,08,11,18,43,17.80
2020,08,11,18,44,17.80
2020,08,11,18,45,17.80
2020,08,11,18,46,17.80
2020,08,11,18,47,17.80
2020,08,11,18,49,17.90
2020,08,11,18,50,17.90
2020,08,11,18,51,17.90
2020,08,11,18,52,17.90
2020,08,11,18,53,17.80
2020,08,11,18,56,17.80
2020,08,11,18,58,17.70
2020,08,11,18,59,17.60
2020,08,11,19,01,17.40
2020,08,11,19,02,17.40
2020,08,11,19,04,17.30
2020,08,11,19,05,17.30
2020,08,11,19,06,17.30
2020,08,11,19,07,17.30
2020,08,11,19,08,17.30
2020,08,11,19,09,17.40
2020,08,11,19,10,17.40
2020,08,11,19,11,17.40
2020,08,11,19,12,17.40
2020,08,11,19,13,17.40
2020,08,11,19,14,17.40
2020,08,11,19,15,17.30
2020,08,11,19,17,17.30
2020,08,11,19,19,17.20